Ave Maria, FL

6:37 AM EST on February 08, 2016 (GMT -0500)
Immokalee

Weather History for KIMM - February, 2014

Change the Weather History Date:

Saturday, February 15, 2014

  Actual Average (KFMY) Record (KFMY)
Temperature  
Mean Temperature 62 °F 67 °F  
Max Temperature 78 °F 77 °F 87 °F (1949)
Min Temperature 46 °F 56 °F 33 °F (1971)
Degree Days  
Heating Degree Days 3 2  
Month to date heating degree days 36  
Since 1 July heating degree days 237  
Cooling Degree Days 0 4  
Month to date cooling degree days 50  
Year to date cooling degree days 133  
Growing Degree Days 12 (Base 50)    
Moisture  
Dew Point 52 °F    
Average Humidity 59    
Maximum Humidity 100    
Minimum Humidity 41    
Precipitation  
Precipitation 0.00 in 0.09 in 2.60 in (1969)
Month to date precipitation 1.09  
Year to date precipitation 3.03  
Sea Level Pressure  
Sea Level Pressure 30.06 in    
Wind  
Wind Speed 4 mph (West)    
Max Wind Speed 16 mph    
Max Gust Speed 23 mph    
Visibility 10 miles    
Events      
T = Trace of Precipitation, MM = Missing Value Source: NWS Daily Summary

Daily Weather History Graph

Daily Weather History Graph

Search for Another Location

Airport or City:

Trip Planner

Search our weather history database for the weather conditions in past years. The results will help you decide how hot, cold, wet, or windy it might be!

Date:

Astronomy

Feb. 15, 2014 Rise Set
Actual Time 7:01 AM EST 6:18 PM EST
Civil Twilight 6:37 AM EST 6:41 PM EST
Nautical Twilight 6:10 AM EST 7:09 PM EST
Astronomical Twilight 5:43 AM EST 7:36 PM EST
Moon 7:06 PM EST (2/15) 7:07 AM EST (2/15)
Length of Visible Light 12h 04m
Length of Day
11h 16m
Full, 100% of the Moon is Illuminated
Feb 15
Full
Feb 22
Last Quarter
Mar 1
New
Mar 8
First Quarter
Mar 16
Full

Hourly Weather History & Observations

Time (EST) Temp. Windchill Dew Point Humidity Pressure Visibility Wind Dir Wind Speed Gust Speed Precip Events Conditions
12:15 AM 48.2 °F - - N/A% 30.03 in 10.0 mi Calm Calm - 0.00 in   Clear
12:35 AM 46.4 °F - - N/A% 30.03 in 10.0 mi Calm Calm - 0.00 in   Clear
12:55 AM 48.2 °F - - N/A% 30.02 in 10.0 mi Calm Calm - 0.00 in   Clear
1:15 AM 48.2 °F - - N/A% 30.02 in 10.0 mi Calm Calm - 0.00 in   Clear
1:35 AM 48.2 °F - - N/A% 30.01 in 10.0 mi Calm Calm - 0.00 in   Clear
1:55 AM 48.2 °F - - N/A% 30.00 in 10.0 mi South 4.6 mph - 0.00 in   Clear
2:15 AM 48.2 °F - - N/A% 30.00 in 10.0 mi Calm Calm - 0.00 in   Clear
2:35 AM 48.2 °F - - N/A% 29.99 in 10.0 mi South 4.6 mph - 0.00 in   Clear
2:55 AM 48.2 °F - - N/A% 29.99 in 10.0 mi Calm Calm - 0.00 in   Clear
3:15 AM 48.2 °F - - N/A% 29.99 in 10.0 mi South 4.6 mph - 0.00 in   Clear
3:35 AM 48.2 °F - - N/A% 30.00 in 10.0 mi Calm Calm - 0.00 in   Mostly Cloudy
3:55 AM 48.2 °F - - N/A% 29.99 in 10.0 mi South 3.5 mph - 0.00 in   Scattered Clouds
4:15 AM 48.2 °F - - N/A% 29.99 in 10.0 mi Calm Calm - 0.00 in   Clear
4:35 AM 48.2 °F - - N/A% 30.00 in 10.0 mi Calm Calm - 0.00 in   Clear
4:55 AM 48.2 °F - - N/A% 30.00 in 10.0 mi Calm Calm - 0.00 in   Clear
5:15 AM 50.0 °F - - N/A% 30.01 in 10.0 mi Calm Calm - 0.00 in   Mostly Cloudy
5:35 AM 51.8 °F - - N/A% 30.02 in 10.0 mi Calm Calm - 0.00 in   Mostly Cloudy
5:55 AM 51.8 °F - - N/A% 30.02 in 10.0 mi Calm Calm - 0.00 in   Scattered Clouds
6:15 AM 51.8 °F - - N/A% 30.03 in 10.0 mi Calm Calm - 0.00 in   Mostly Cloudy
6:35 AM 51.8 °F - - N/A% 30.04 in 10.0 mi Calm Calm - 0.00 in   Partly Cloudy
6:55 AM 51.8 °F - - N/A% 30.04 in 10.0 mi South 4.6 mph - 0.00 in   Clear
7:15 AM 51.8 °F - - N/A% 30.04 in 10.0 mi South 5.8 mph - 0.00 in   Clear
7:35 AM 51.8 °F - - N/A% 30.05 in 10.0 mi South 4.6 mph - 0.00 in   Clear
7:55 AM 53.6 °F - - N/A% 30.05 in 10.0 mi Calm Calm - 0.00 in   Clear
8:15 AM 55.4 °F - - N/A% 30.05 in 10.0 mi Calm Calm - 0.00 in   Clear
8:35 AM 60.8 °F - 60.8 °F 100% 30.06 in 10.0 mi Calm Calm - 0.00 in   Clear
8:55 AM 64.4 °F - 64.4 °F 100% 30.07 in 10.0 mi Calm Calm - 0.00 in   Clear
9:15 AM 66.2 °F - 66.2 °F 100% 30.08 in 10.0 mi Calm Calm - 0.00 in   Clear
9:35 AM 69.8 °F - 66.2 °F 88% 30.08 in 10.0 mi SW 8.1 mph - 0.00 in   Partly Cloudy
9:55 AM 71.6 °F - 66.2 °F 83% 30.08 in 10.0 mi SW 8.1 mph - 0.00 in   Partly Cloudy
10:15 AM 73.4 °F - 64.4 °F 73% 30.08 in 10.0 mi WSW 9.2 mph - 0.00 in   Clear
10:35 AM 75.2 °F - 60.8 °F 61% 30.08 in 10.0 mi West 15.0 mph 23.0 mph 0.00 in   Partly Cloudy
10:55 AM 75.2 °F - 57.2 °F 53% 30.07 in 10.0 mi West 15.0 mph 21.9 mph 0.00 in   Partly Cloudy
11:15 AM 77.0 °F - 57.2 °F 50% 30.07 in 10.0 mi West 11.5 mph 18.4 mph 0.00 in   Clear
11:35 AM 77.0 °F - 57.2 °F 50% 30.07 in 10.0 mi West 13.8 mph 21.9 mph 0.00 in   Clear
11:55 AM 78.8 °F - 57.2 °F 47% 30.07 in 10.0 mi West 16.1 mph 21.9 mph 0.00 in   Clear
12:15 PM 78.8 °F - 55.4 °F 44% 30.06 in 10.0 mi West 12.7 mph 21.9 mph 0.00 in   Partly Cloudy
12:35 PM 78.8 °F - 55.4 °F 44% 30.05 in 10.0 mi West 13.8 mph - 0.00 in   Scattered Clouds
12:55 PM 78.8 °F - 57.2 °F 47% 30.05 in 10.0 mi West 12.7 mph 17.3 mph 0.00 in   Mostly Cloudy
1:15 PM 78.8 °F - 53.6 °F 42% 30.05 in 10.0 mi West 11.5 mph 20.7 mph 0.00 in   Scattered Clouds
1:35 PM 77.0 °F - 53.6 °F 44% 30.05 in 10.0 mi West 10.4 mph 20.7 mph 0.00 in   Partly Cloudy
1:55 PM 75.2 °F - 55.4 °F 50% 30.04 in 10.0 mi WNW 10.4 mph 17.3 mph 0.00 in   Partly Cloudy
2:15 PM 78.8 °F - 55.4 °F 44% 30.04 in 10.0 mi WNW 10.4 mph 17.3 mph 0.00 in   Scattered Clouds
2:35 PM 78.8 °F - 53.6 °F 42% 30.04 in 10.0 mi West 13.8 mph 20.7 mph 0.00 in   Partly Cloudy
2:55 PM 78.8 °F - 53.6 °F 42% 30.04 in 10.0 mi West 10.4 mph 19.6 mph 0.00 in   Partly Cloudy
3:15 PM 78.8 °F - 53.6 °F 42% 30.04 in 10.0 mi West 9.2 mph - 0.00 in   Partly Cloudy
3:35 PM 78.8 °F - 53.6 °F 42% 30.04 in 10.0 mi West 11.5 mph 19.6 mph 0.00 in   Partly Cloudy
3:55 PM 78.8 °F - 53.6 °F 42% 30.04 in 10.0 mi West 13.8 mph 18.4 mph 0.00 in   Scattered Clouds
4:15 PM 77.0 °F - 53.6 °F 44% 30.05 in 10.0 mi WNW 12.7 mph 17.3 mph 0.00 in   Partly Cloudy
4:35 PM 77.0 °F - 51.8 °F 41% 30.05 in 10.0 mi West 12.7 mph 18.4 mph 0.00 in   Clear
4:55 PM 75.2 °F - 51.8 °F 44% 30.06 in 10.0 mi WNW 9.2 mph - 0.00 in   Clear
5:15 PM 75.2 °F - 51.8 °F 44% 30.07 in 10.0 mi WNW 8.1 mph - 0.00 in   Clear
5:35 PM 73.4 °F - 51.8 °F 47% 30.08 in 10.0 mi WNW 9.2 mph - 0.00 in   Clear
5:55 PM 71.6 °F - 51.8 °F 50% 30.09 in 10.0 mi WNW 6.9 mph - 0.00 in   Clear
6:15 PM 69.8 °F - 51.8 °F 53% 30.09 in 10.0 mi WNW 10.4 mph - 0.00 in   Clear
6:35 PM 68.0 °F - 51.8 °F 56% 30.10 in 10.0 mi WNW 5.8 mph - 0.00 in   Clear
6:55 PM 64.4 °F - 51.8 °F 64% 30.10 in 10.0 mi NW 3.5 mph - 0.00 in   Clear
7:15 PM 64.4 °F - 51.8 °F 64% 30.11 in 10.0 mi WNW 3.5 mph - 0.00 in   Clear
7:35 PM 62.6 °F - 51.8 °F 68% 30.11 in 10.0 mi WNW 3.5 mph - 0.00 in   Clear
7:55 PM 62.6 °F - 48.2 °F 59% 30.12 in 10.0 mi NW 3.5 mph - 0.00 in   Clear
8:15 PM 60.8 °F - 48.2 °F 63% 30.13 in 10.0 mi Calm Calm - 0.00 in   Clear
8:35 PM 57.2 °F - 48.2 °F 72% 30.14 in 10.0 mi WNW 4.6 mph - 0.00 in   Clear
8:55 PM 57.2 °F - 44.6 °F 63% 30.15 in 10.0 mi NW 3.5 mph - 0.00 in   Clear
9:15 PM 53.6 °F - 44.6 °F 72% 30.15 in 10.0 mi NW 5.8 mph - 0.00 in   Clear
9:35 PM 51.8 °F - 44.6 °F 76% 30.15 in 10.0 mi NW 3.5 mph - 0.00 in   Clear
9:55 PM 51.8 °F - 35.6 °F 54% 30.16 in 10.0 mi NW 4.6 mph - 0.00 in   Clear
10:15 PM 51.8 °F - 35.6 °F 54% 30.16 in 10.0 mi NW 4.6 mph - 0.00 in   Clear
10:35 PM 50.0 °F - 35.6 °F 58% 30.16 in 10.0 mi NW 3.5 mph - 0.00 in   Clear
10:55 PM 48.2 °F - 37.4 °F 66% 30.16 in 10.0 mi Calm Calm - 0.00 in   Clear
11:15 PM 46.4 °F 43.5 °F 37.4 °F 71% 30.16 in 10.0 mi NW 5.8 mph - 0.00 in   Clear
11:35 PM 48.2 °F - 39.2 °F 71% 30.16 in 10.0 mi NW 4.6 mph - 0.00 in   Clear
11:55 PM 46.4 °F 44.3 °F 39.2 °F 76% 30.16 in 10.0 mi NW 4.6 mph - 0.00 in   Clear